sat.trackr.live / text

‹ back to catalog

GENA-OT

NORAD 66774 · 2025-276DN

PAYLOAD ACTIVE UNKNOWN

§ Identity

Operator
Country
GER
Launch date
2025-11-28
Launch site
AFWTR
Launch vehicle
Mass (kg)
RCS (m²)

External: N2YO · Heavens-Above · Gunter

§ Orbital elements

Epoch: 2026-05-25T03:36:55.759104Z

Period
94.69 min
Inclination
97.4208°
Eccentricity
0.0000435
Mean motion
15.20802730 rev/d
Perigee alt
503.1 km
Apogee alt
503.7 km
Semi-major
6,881.6 km
B*
2.4145e-4
RAAN
219.4173°
Arg perigee
40.3229°
Mean anomaly
319.8039°
Rev number
2,694

§ Raw data

GENA-OT1 66774U 25276DN  26145.15064536  .00005255  00000+0  24145-3 0  99952 66774  97.4208 219.4173 0000435  40.3229 319.8039 15.20802730 26943

JSON: /api/v1/satellites/66774 · /tle

For live sub-satellite position, see the globe view (requires WebGL).

§ Visibility from observer

Set your observer location to see the next 7 days of passes ≥ 10°. The values pass through the URL so the page stays shareable.

No JS? Fill the form by hand. The geolocation button needs JavaScript.